Showing default

ORBCOMM FM 105, 41181

Orbit data source: Space-Track

ORBCOMM FM 105, 41181 is a payload satellite owned by Orbcomm (US) in LEO that was launched on Tue, 22 Dec 2015 UTC via an FALCON 9 launch vehicle from the Air Force Eastern Test Range (AFETR). Payload-class satellites include a variety of spacecraft equipped with specific instruments for various scientific and technological missions. These include communications satellites like Starlink; space stations such as the ISS; scientific satellites like the Hubble; Earth observation satellites from companies like Planet Labs, Umbra, and HawkEye 360; GPS; miniature CubeSats for education and research; and military/defense satellites.

Loading next visibility...
Identifier
41181, 2015-081C
Orbit
LEO
Country
Flag of USUS / ORB
Related business
Manufacturer
SNC Louisville
Mission
Non-operational Commercial Communications
Bus & Motor
SN-100A, Unknown motor
Mass
172 kg wet, 158 kg dry
Launch date (UTC)
2015-12-22 (10 years ago)
Launch vehicle
FALCON 9
Launch site
Air Force Eastern Test Range (AFETR)
Object type
Payload
Rocket body
Debris
Shape & HBR
Box + 1 Pan + 1 Ant, 10.3 m
Radar Cross Section
2.222 m², Medium (>0.1 m² and < 1m²)

Expand to show TLE details & history
Last TLE update: 12 hours ago

TLE from 12 hours ago
0 ORBCOMM FM 105
1 41181U 15081C   25297.77429638  .00000399  00000-0  15702-3 0  9990
2 41181  47.0023 321.6278 0002002 211.0200 149.0563 14.45340800519497
Epoch: 2025-10-24T18:34Z
TLE epoch observation values (Epoch: 2025-10-24T18:34:59.207Z)
Latitude
0.00004°
Longitude
9.46677°
Altitude
742.343 km
Speed
7.484 km/s
True Right ascension
21h 26m 30s
True Declination
0° 00' 00"
Sunlit
Object was in daylight at epoch
Visualization orbit readout
Latitude
Unknown
Longitude
Unknown
Altitude
Unknown
Speed
Unknown
Apparent Right ascension
Unknown
Apparent Declination
Unknown
Sunlit
N/A
Visualization observer readout
Local Sidereal Time
02:15:55
Azimuth
Unknown
Elevation
Unknown
Doppler factor
Unknown
Orbital elements
Apogee altitude
743.559 km
Perigee altitude
740.708 km
Semi-major axis
7,120.271 km
Eccentricity
0.0002
Inclination
47.0023°
RAAN
321.6278°
Arg. of periapsis
211.02°
True anomaly
149.06809°
Mean anomaly
149.0563°
Eccentric anomaly
149.0622°
Mean motion
3.61242 °/min
Orbital period
99.66 mins
BSTAR
0.00015702
Loading maneuver chart data...
Computing Atmospheric mass density...
Loading historical data...
Loading historical data...
Loading historical data...
Loading historical data...
Loading historical data...
Loading historical data...
Loading historical data...

Documentation

Showing up to 5 results
|